| time (UTC) | temp F | wind direction | speed knots | gust knots | rain 1hr in | rain 24hr in | rain mn in | humidity % | barometer mb |
| 20260903025837 | 81 | 219 | 7.0 | 8.7 | 0.00 | 0.00 | 0.00 | 76 | 1013.8 |
| 20260903025333 | 81 | 201 | 7.8 | 8.7 | 0.00 | 0.00 | 0.00 | 76 | 1013.9 |
| 20260903024832 | 81 | 206 | 4.3 | 7.0 | 0.00 | 0.00 | 0.00 | 76 | 1013.9 |
| 20260903024331 | 81 | 205 | 4.3 | 7.0 | 0.00 | 0.00 | 0.00 | 76 | 1014.2 |
| 20260903023822 | 81 | 192 | 3.5 | 6.1 | 0.00 | 0.00 | 0.00 | 76 | 1014.2 |
| 20260903023317 | 81 | 193 | 6.1 | 8.7 | 0.00 | 0.00 | 0.00 | 75 | 1014.2 |
| 20260903022812 | 81 | 212 | 4.3 | 8.7 | 0.00 | 0.00 | 0.00 | 75 | 1014.2 |
| 20260903022310 | 81 | 210 | 7.0 | 8.7 | 0.00 | 0.00 | 0.00 | 75 | 1014.2 |
| 20260903021805 | 81 | 211 | 5.2 | 7.8 | 0.00 | 0.00 | 0.00 | 76 | 1014.1 |
| 20260903021301 | 81 | 212 | 5.2 | 7.0 | 0.00 | 0.00 | 0.00 | 76 | 1014.2 |
| 20260903020800 | 81 | 204 | 4.3 | 7.8 | 0.00 | 0.00 | 0.00 | 77 | 1014.3 |
| 20260903020255 | 81 | 199 | 3.5 | 7.0 | 0.00 | 0.00 | 0.00 | 77 | 1014.5 |
| 20260903015750 | 81 | 197 | 4.3 | 7.0 | 0.00 | 0.00 | 0.00 | 77 | 1014.3 |
| 20260903015246 | 81 | 206 | 4.3 | 5.2 | 0.00 | 0.00 | 0.00 | 77 | 1014.2 |
| 20260903014741 | 81 | 201 | 3.5 | 6.1 | 0.00 | 0.00 | 0.00 | 76 | 1014.2 |
| 20260903014240 | 82 | 211 | 4.3 | 6.1 | 0.00 | 0.00 | 0.00 | 76 | 1014.4 |
| 20260903013736 | 82 | 211 | 3.5 | 6.1 | 0.00 | 0.00 | 0.00 | 76 | 1014.2 |
| 20260903013235 | 82 | 188 | 1.7 | 5.2 | 0.00 | 0.00 | 0.00 | 76 | 1014.4 |
| 20260903012733 | 82 | 208 | 2.6 | 5.2 | 0.00 | 0.00 | 0.00 | 75 | 1014.1 |
| 20260903012228 | 82 | 204 | 3.5 | 5.2 | 0.00 | 0.00 | 0.00 | 75 | 1014.2 |
| 20260903011728 | 82 | 211 | 2.6 | 6.1 | 0.00 | 0.00 | 0.00 | 74 | 1014.2 |
| 20260903011221 | 82 | 197 | 3.5 | 6.1 | 0.00 | 0.00 | 0.00 | 74 | 1014.2 |
| 20260903010717 | 83 | 213 | 2.6 | 6.1 | 0.00 | 0.00 | 0.00 | 73 | 1014.2 |
| 20260903010217 | 83 | 212 | 4.3 | 5.2 | 0.00 | 0.00 | 0.00 | 72 | 1014.1 |
| 20260903005716 | 83 | 208 | 1.7 | 5.2 | 0.00 | 0.00 | 0.00 | 71 | 1014.1 |
| 20260903005211 | 84 | 192 | 3.5 | 5.2 | 0.00 | 0.00 | 0.00 | 70 | 1013.9 |
| 20260903004707 | 84 | 208 | 3.5 | 4.3 | 0.00 | 0.00 | 0.00 | 69 | 1013.9 |
| 20260903004202 | 84 | 208 | 3.5 | 4.3 | 0.00 | 0.00 | 0.00 | 68 | 1013.9 |
| 20260903003658 | 85 | 210 | 4.3 | 6.1 | 0.00 | 0.00 | 0.00 | 67 | 1013.7 |
| 20260903003153 | 85 | 202 | 2.6 | 5.2 | 0.00 | 0.00 | 0.00 | 66 | 1013.6 |
| 20260903002648 | 86 | 218 | 2.6 | 6.1 | 0.00 | 0.00 | 0.00 | 65 | 1013.8 |
| 20260903002142 | 86 | 205 | 4.3 | 6.1 | 0.00 | 0.00 | 0.00 | 64 | 1013.7 |
| 20260903001636 | 86 | 238 | 1.7 | 4.3 | 0.00 | 0.00 | 0.00 | 64 | 1013.7 |
| 20260903001131 | 86 | 217 | 3.5 | 5.2 | 0.00 | 0.00 | 0.00 | 63 | 1013.7 |
| 20260903000627 | 86 | 220 | 3.5 | 5.2 | 0.00 | 0.00 | 0.00 | 63 | 1013.9 |
| 20260903000126 | 87 | 225 | 4.3 | 6.1 | 0.00 | 0.00 | 0.00 | 62 | 1013.6 |
| 20260902235625 | 87 | 214 | 3.5 | 3.5 | 0.00 | 0.00 | 0.00 | 62 | 1013.6 |
| 20260902235120 | 87 | 218 | 2.6 | 7.8 | 0.00 | 0.00 | 0.00 | 61 | 1013.8 |
| 20260902234614 | 88 | 244 | 1.7 | 3.5 | 0.00 | 0.00 | 0.00 | 60 | 1013.6 |
| 20260902234113 | 88 | 235 | 3.5 | 5.2 | 0.00 | 0.00 | 0.00 | 59 | 1013.6 |
| 20260902233608 | 88 | 213 | 3.5 | 5.2 | 0.00 | 0.00 | 0.00 | 59 | 1013.7 |
| 20260902233102 | 89 | 236 | 3.5 | 6.1 | 0.00 | 0.00 | 0.00 | 58 | 1013.6 |
| 20260902232602 | 89 | 244 | 1.7 | 7.0 | 0.00 | 0.00 | 0.00 | 57 | 1013.7 |
| 20260902232056 | 89 | 224 | 7.0 | 9.6 | 0.00 | 0.00 | 0.00 | 56 | 1013.7 |
| 20260902231556 | 89 | 243 | 2.6 | 7.0 | 0.00 | 0.00 | 0.00 | 56 | 1013.6 |
| 20260902231050 | 89 | 242 | 3.5 | 7.8 | 0.00 | 0.00 | 0.00 | 56 | 1013.6 |
| 20260902230545 | 90 | 238 | 4.3 | 11.3 | 0.00 | 0.00 | 0.00 | 55 | 1013.6 |
| 20260902230044 | 90 | 245 | 5.2 | 8.7 | 0.00 | 0.00 | 0.00 | 55 | 1013.6 |
| 20260902225539 | 90 | 231 | 4.3 | 9.6 | 0.00 | 0.00 | 0.00 | 55 | 1014.1 |
| 20260902225039 | 90 | 224 | 4.3 | 6.1 | 0.00 | 0.00 | 0.00 | 54 | 1013.7 |
| 20260902224538 | 91 | 233 | 3.5 | 8.7 | 0.00 | 0.00 | 0.00 | 54 | 1013.8 |
| 20260902224034 | 91 | 237 | 3.5 | 7.0 | 0.00 | 0.00 | 0.00 | 53 | 1013.6 |
| 20260902223530 | 91 | 231 | 11.3 | 11.3 | 0.00 | 0.00 | 0.00 | 53 | 1013.7 |
| 20260902223029 | 91 | 237 | 6.1 | 11.3 | 0.00 | 0.00 | 0.00 | 52 | 1013.8 |
| 20260902222528 | 91 | 213 | 4.3 | 7.0 | 0.00 | 0.00 | 0.00 | 53 | 1013.9 |
| 20260902222026 | 91 | 244 | 4.3 | 8.7 | 0.00 | 0.00 | 0.00 | 53 | 1014.1 |
| 20260902221521 | 91 | 246 | 6.1 | 11.3 | 0.00 | 0.00 | 0.00 | 51 | 1013.9 |
| 20260902221016 | 91 | 237 | 4.3 | 10.4 | 0.00 | 0.00 | 0.00 | 51 | 1014.1 |
| 20260902220511 | 91 | 255 | 11.3 | 11.3 | 0.00 | 0.00 | 0.00 | 51 | 1013.9 |
| 20260902220006 | 91 | 257 | 11.3 | 11.3 | 0.00 | 0.00 | 0.00 | 51 | 1014.1 |
| 20260902215502 | 92 | 230 | 8.7 | 8.7 | 0.00 | 0.00 | 0.00 | 49 | 1013.9 |
| 20260902214957 | 92 | 238 | 3.5 | 7.0 | 0.00 | 0.00 | 0.00 | 48 | 1014.2 |
| 20260902214457 | 92 | 224 | 3.5 | 9.6 | 0.00 | 0.00 | 0.00 | 48 | 1014.1 |
| 20260902213955 | 92 | 234 | 3.5 | 10.4 | 0.00 | 0.00 | 0.00 | 47 | 1013.8 |
| 20260902213452 | 92 | 229 | 3.5 | 8.7 | 0.00 | 0.00 | 0.00 | 46 | 1013.8 |
| 20260902212950 | 92 | 244 | 7.8 | 11.3 | 0.00 | 0.00 | 0.00 | 47 | 1013.7 |
| 20260902212447 | 92 | 245 | 5.2 | 11.3 | 0.00 | 0.00 | 0.00 | 50 | 1013.6 |
| 20260902211943 | 92 | 199 | 6.1 | 14.8 | 0.00 | 0.00 | 0.00 | 49 | 1014.1 |
| 20260902211439 | 92 | 236 | 3.5 | 13.0 | 0.00 | 0.00 | 0.00 | 49 | 1013.9 |
| 20260902210933 | 91 | 207 | 10.4 | 12.2 | 0.00 | 0.00 | 0.00 | 51 | 1013.9 |
| 20260902210428 | 92 | 217 | 6.1 | 7.8 | 0.00 | 0.00 | 0.00 | 49 | 1013.9 |
| 20260902205920 | 92 | 242 | 3.5 | 13.0 | 0.00 | 0.00 | 0.00 | 50 | 1014.1 |
| 20260902205415 | 91 | 229 | 4.3 | 13.9 | 0.00 | 0.00 | 0.00 | 50 | 1014.2 |
| 20260902204906 | 92 | 218 | 5.2 | 11.3 | 0.00 | 0.00 | 0.00 | 50 | 1014.3 |
| 20260902204405 | 92 | 216 | 13.0 | 13.0 | 0.00 | 0.00 | 0.00 | 49 | 1014.3 |
| 20260902203901 | 91 | 232 | 6.1 | 11.3 | 0.00 | 0.00 | 0.00 | 50 | 1014.4 |
| 20260902203356 | 92 | 245 | 4.3 | 14.8 | 0.00 | 0.00 | 0.00 | 49 | 1014.4 |
| 20260902202850 | 92 | 229 | 3.5 | 8.7 | 0.00 | 0.00 | 0.00 | 52 | 1014.5 |
| 20260902202346 | 93 | 226 | 5.2 | 11.3 | 0.00 | 0.00 | 0.00 | 50 | 1014.6 |
| 20260902201842 | 92 | 215 | 6.1 | 13.0 | 0.00 | 0.00 | 0.00 | 51 | 1014.5 |
| 20260902201342 | 91 | 209 | 7.8 | 10.4 | 0.00 | 0.00 | 0.00 | 51 | 1014.6 |
| 20260902200837 | 91 | 225 | 5.2 | 7.8 | 0.00 | 0.00 | 0.00 | 53 | 1014.8 |
| 20260902200332 | 92 | 226 | 4.3 | 9.6 | 0.00 | 0.00 | 0.00 | 51 | 1014.6 |
| 20260902195828 | 91 | 222 | 4.3 | 7.0 | 0.00 | 0.00 | 0.00 | 51 | 1014.6 |
| 20260902195327 | 92 | 223 | 3.5 | 11.3 | 0.00 | 0.00 | 0.00 | 50 | 1014.6 |
| 20260902194822 | 94 | 208 | 5.2 | 8.7 | 0.00 | 0.00 | 0.00 | 47 | 1014.7 |
| 20260902194317 | 93 | 239 | 4.3 | 11.3 | 0.00 | 0.00 | 0.00 | 47 | 1014.7 |
| 20260902193812 | 93 | 242 | 7.0 | 10.4 | 0.00 | 0.00 | 0.00 | 46 | 1014.9 |
| 20260902193308 | 92 | 237 | 7.0 | 13.9 | 0.00 | 0.00 | 0.00 | 50 | 1015.0 |
| 20260902192807 | 93 | 259 | 7.0 | 13.0 | 0.00 | 0.00 | 0.00 | 48 | 1015.1 |
| 20260902192307 | 93 | 212 | 4.3 | 12.2 | 0.00 | 0.00 | 0.00 | 46 | 1015.1 |
| 20260902191805 | 93 | 228 | 7.8 | 11.3 | 0.00 | 0.00 | 0.00 | 47 | 1014.9 |
| 20260902191301 | 93 | 245 | 9.6 | 16.5 | 0.00 | 0.00 | 0.00 | 48 | 1015.2 |
| 20260902190756 | 93 | 234 | 4.3 | 11.3 | 0.00 | 0.00 | 0.00 | 50 | 1015.2 |
| 20260902190255 | 93 | 221 | 7.0 | 11.3 | 0.00 | 0.00 | 0.00 | 49 | 1015.3 |
| 20260902185751 | 93 | 225 | 8.7 | 11.3 | 0.00 | 0.00 | 0.00 | 50 | 1015.4 |
| 20260902185246 | 92 | 252 | 11.3 | 13.0 | 0.00 | 0.00 | 0.00 | 52 | 1015.3 |
| 20260902184742 | 92 | 248 | 15.6 | 15.6 | 0.00 | 0.00 | 0.00 | 49 | 1015.3 |
| 20260902184242 | 92 | 239 | 7.8 | 9.6 | 0.00 | 0.00 | 0.00 | 53 | 1015.3 |
| 20260902183738 | 92 | 261 | 8.7 | 12.2 | 0.00 | 0.00 | 0.00 | 54 | 1015.4 |
| 20260902183234 | 91 | 258 | 7.8 | 15.6 | 0.00 | 0.00 | 0.00 | 54 | 1015.5 |
| 20260902182730 | 91 | 248 | 11.3 | 16.5 | 0.00 | 0.00 | 0.00 | 52 | 1015.5 |
| 20260902182226 | 91 | 250 | 6.1 | 14.8 | 0.00 | 0.00 | 0.00 | 53 | 1015.5 |
| 20260902181723 | 91 | 234 | 5.2 | 13.9 | 0.00 | 0.00 | 0.00 | 52 | 1015.6 |
| 20260902181222 | 91 | 232 | 4.3 | 11.3 | 0.00 | 0.00 | 0.00 | 53 | 1015.7 |
| 20260902180717 | 91 | 238 | 5.2 | 16.5 | 0.00 | 0.00 | 0.00 | 52 | 1015.7 |
| 20260902180213 | 91 | 221 | 7.0 | 11.3 | 0.00 | 0.00 | 0.00 | 52 | 1015.7 |
| 20260902175708 | 90 | 237 | 7.8 | 13.0 | 0.00 | 0.00 | 0.00 | 55 | 1015.8 |
| 20260902175204 | 92 | 254 | 7.8 | 13.0 | 0.00 | 0.00 | 0.00 | 51 | 1015.8 |
| 20260902174659 | 91 | 255 | 7.8 | 12.2 | 0.00 | 0.00 | 0.00 | 55 | 1015.9 |
| 20260902174155 | 90 | 240 | 7.8 | 12.2 | 0.00 | 0.00 | 0.00 | 56 | 1016.1 |
| 20260902173650 | 91 | 224 | 5.2 | 13.0 | 0.00 | 0.00 | 0.00 | 55 | 1016.1 |
| 20260902173145 | 90 | 246 | 5.2 | 13.0 | 0.00 | 0.00 | 0.00 | 56 | 1016.2 |
| 20260902172639 | 90 | 232 | 3.5 | 10.4 | 0.00 | 0.00 | 0.00 | 52 | 1016.1 |
| 20260902172138 | 90 | 263 | 6.1 | 10.4 | 0.00 | 0.00 | 0.00 | 58 | 1016.1 |
| 20260902171634 | 90 | 242 | 2.6 | 9.6 | 0.00 | 0.00 | 0.00 | 56 | 1016.3 |
| 20260902171130 | 89 | 247 | 8.7 | 13.0 | 0.00 | 0.00 | 0.00 | 57 | 1016.2 |
| 20260902170625 | 90 | 246 | 3.5 | 11.3 | 0.00 | 0.00 | 0.00 | 59 | 1016.3 |
| 20260902170121 | 89 | 244 | 4.3 | 11.3 | 0.00 | 0.00 | 0.00 | 59 | 1016.1 |
| 20260902165620 | 89 | 248 | 9.6 | 10.4 | 0.00 | 0.00 | 0.00 | 58 | 1016.2 |
| 20260902165115 | 89 | 222 | 2.6 | 9.6 | 0.00 | 0.00 | 0.00 | 59 | 1016.4 |
| 20260902164610 | 88 | 256 | 6.1 | 11.3 | 0.00 | 0.00 | 0.00 | 60 | 1016.5 |
| 20260902164109 | 88 | 249 | 7.0 | 15.6 | 0.00 | 0.00 | 0.00 | 57 | 1016.5 |
| 20260902163605 | 89 | 277 | 10.4 | 13.0 | 0.00 | 0.00 | 0.00 | 60 | 1016.6 |
| 20260902163103 | 88 | 250 | 7.8 | 12.2 | 0.00 | 0.00 | 0.00 | 60 | 1016.8 |
| 20260902162602 | 88 | 230 | 4.3 | 11.3 | 0.00 | 0.00 | 0.00 | 61 | 1016.7 |
| 20260902162057 | 88 | 255 | 3.5 | 7.0 | 0.00 | 0.00 | 0.00 | 62 | 1016.8 |
| 20260902161552 | 88 | 254 | 6.1 | 10.4 | 0.00 | 0.00 | 0.00 | 60 | 1016.7 |
| 20260902161049 | 88 | 240 | 11.3 | 11.3 | 0.00 | 0.00 | 0.00 | 60 | 1016.7 |
| 20260902160544 | 87 | 241 | 7.8 | 11.3 | 0.00 | 0.00 | 0.00 | 60 | 1016.7 |
| 20260902160039 | 87 | 241 | 5.2 | 11.3 | 0.00 | 0.00 | 0.00 | 62 | 1016.9 |
| 20260902155532 | 87 | 247 | 3.5 | 7.8 | 0.00 | 0.00 | 0.00 | 63 | 1016.5 |
| 20260902155031 | 87 | 241 | 5.2 | 9.6 | 0.00 | 0.00 | 0.00 | 65 | 1016.6 |
| 20260902154527 | 87 | 249 | 7.8 | 11.3 | 0.00 | 0.00 | 0.00 | 63 | 1016.8 |
| 20260902154021 | 87 | 241 | 7.0 | 11.3 | 0.00 | 0.00 | 0.00 | 63 | 1016.6 |
| 20260902153520 | 86 | 243 | 6.1 | 9.6 | 0.00 | 0.00 | 0.00 | 63 | 1016.6 |
| 20260902153016 | 86 | 242 | 6.1 | 12.2 | 0.00 | 0.00 | 0.00 | 65 | 1016.7 |
| 20260902152512 | 86 | 249 | 9.6 | 12.2 | 0.00 | 0.00 | 0.00 | 65 | 1016.7 |
| 20260902152007 | 86 | 243 | 4.3 | 7.8 | 0.00 | 0.00 | 0.00 | 64 | 1016.5 |
| 20260902151503 | 86 | 229 | 4.3 | 7.8 | 0.00 | 0.00 | 0.00 | 65 | 1016.7 |
| 20260902150956 | 86 | 219 | 6.1 | 6.1 | 0.00 | 0.00 | 0.00 | 64 | 1016.4 |
| 20260902150452 | 86 | 256 | 3.5 | 7.8 | 0.00 | 0.00 | 0.00 | 65 | 1016.3 |
| 20260902145952 | 85 | 203 | 13.0 | 13.0 | 0.00 | 0.00 | 0.00 | 65 | 1016.4 |
| 20260902145447 | 85 | 227 | 2.6 | 7.0 | 0.00 | 0.00 | 0.00 | 67 | 1016.4 |
| 20260902144941 | 85 | 221 | 6.1 | 8.7 | 0.00 | 0.00 | 0.00 | 66 | 1016.4 |
| 20260902144438 | 84 | 230 | 3.5 | 9.6 | 0.00 | 0.00 | 0.00 | 66 | 1016.5 |
| 20260902143932 | 84 | 237 | 4.3 | 9.6 | 0.00 | 0.00 | 0.00 | 68 | 1016.4 |
| 20260902143427 | 84 | 229 | 3.5 | 8.7 | 0.00 | 0.00 | 0.00 | 67 | 1016.4 |
| 20260902142923 | 84 | 232 | 6.1 | 11.3 | 0.00 | 0.00 | 0.00 | 67 | 1016.5 |
| 20260902142419 | 84 | 257 | 7.8 | 10.4 | 0.00 | 0.00 | 0.00 | 68 | 1016.3 |
| 20260902141914 | 84 | 227 | 3.5 | 6.1 | 0.00 | 0.00 | 0.00 | 66 | 1016.4 |
| 20260902141409 | 84 | 249 | 6.1 | 9.6 | 0.00 | 0.00 | 0.00 | 67 | 1016.2 |
| 20260902140908 | 84 | 233 | 7.8 | 9.6 | 0.00 | 0.00 | 0.00 | 66 | 1016.1 |
| 20260902140404 | 83 | 207 | 4.3 | 7.0 | 0.00 | 0.00 | 0.00 | 67 | 1016.0 |
| 20260902135858 | 83 | 240 | 3.5 | 7.8 | 0.00 | 0.00 | 0.00 | 69 | 1016.3 |
| 20260902135354 | 82 | 234 | 2.6 | 7.8 | 0.00 | 0.00 | 0.00 | 70 | 1016.3 |
| 20260902134853 | 82 | 231 | 5.2 | 9.6 | 0.00 | 0.00 | 0.00 | 70 | 1016.1 |
| 20260902134349 | 82 | 216 | 4.3 | 9.6 | 0.00 | 0.00 | 0.00 | 71 | 1016.2 |
| 20260902133843 | 82 | 229 | 2.6 | 8.7 | 0.00 | 0.00 | 0.00 | 70 | 1016.0 |
| 20260902133343 | 82 | 241 | 2.6 | 6.1 | 0.00 | 0.00 | 0.00 | 71 | 1016.2 |
| 20260902132838 | 82 | 201 | 7.8 | 8.7 | 0.00 | 0.00 | 0.00 | 72 | 1016.2 |
| 20260902132333 | 81 | 229 | 5.2 | 6.1 | 0.00 | 0.00 | 0.00 | 72 | 1016.3 |
| 20260902131829 | 81 | 228 | 3.5 | 6.1 | 0.00 | 0.00 | 0.00 | 73 | 1016.3 |
| 20260902131326 | 80 | 223 | 4.3 | 6.1 | 0.00 | 0.00 | 0.00 | 74 | 1016.3 |
| 20260902130825 | 80 | 216 | 2.6 | 6.1 | 0.00 | 0.00 | 0.00 | 75 | 1016.2 |
| 20260902130321 | 80 | 203 | 3.5 | 7.8 | 0.00 | 0.00 | 0.00 | 75 | 1016.2 |
| 20260902125816 | 80 | 242 | 3.5 | 6.1 | 0.00 | 0.00 | 0.00 | 75 | 1016.3 |
| 20260902125312 | 79 | 206 | 3.5 | 8.7 | 0.00 | 0.00 | 0.00 | 76 | 1016.1 |
| 20260902124808 | 79 | 236 | 1.7 | 8.7 | 0.00 | 0.00 | 0.00 | 77 | 1016.3 |
| 20260902124303 | 78 | 232 | 2.6 | 5.2 | 0.00 | 0.00 | 0.00 | 77 | 1016.3 |
| 20260902123758 | 78 | 250 | 3.5 | 7.8 | 0.00 | 0.00 | 0.00 | 78 | 1016.2 |
| 20260902123254 | 78 | 259 | 1.7 | 4.3 | 0.00 | 0.00 | 0.00 | 79 | 1016.2 |
| 20260902122752 | 78 | 219 | 2.6 | 4.3 | 0.00 | 0.00 | 0.00 | 79 | 1016.3 |
| 20260902122249 | 77 | 216 | 2.6 | 5.2 | 0.00 | 0.00 | 0.00 | 80 | 1016.3 |
| 20260902121743 | 77 | 211 | 2.6 | 5.2 | 0.00 | 0.00 | 0.00 | 80 | 1016.3 |
| 20260902121238 | 77 | 209 | 2.6 | 4.3 | 0.00 | 0.00 | 0.00 | 80 | 1016.2 |
| 20260902120733 | 77 | 210 | 2.6 | 5.2 | 0.00 | 0.00 | 0.00 | 81 | 1016.2 |
| 20260902120229 | 77 | 225 | 1.7 | 9.6 | 0.00 | 0.00 | 0.00 | 81 | 1016.4 |
| 20260902115724 | 76 | 212 | 2.6 | 7.0 | 0.00 | 0.00 | 0.00 | 82 | 1016.2 |
| 20260902115220 | 76 | 204 | 3.5 | 7.8 | 0.00 | 0.00 | 0.00 | 82 | 1016.2 |
| 20260902114716 | 76 | 211 | 2.6 | 6.1 | 0.00 | 0.00 | 0.00 | 82 | 1016.2 |
| 20260902114211 | 76 | 217 | 3.5 | 7.0 | 0.00 | 0.00 | 0.00 | 83 | 1016.0 |
| 20260902113706 | 76 | 208 | 3.5 | 7.8 | 0.00 | 0.00 | 0.00 | 82 | 1016.1 |
| 20260902113201 | 76 | 211 | 3.5 | 5.2 | 0.00 | 0.00 | 0.00 | 83 | 1016.1 |
| 20260902112701 | 76 | 223 | 2.6 | 6.1 | 0.00 | 0.00 | 0.00 | 83 | 1016.1 |
| 20260902112158 | 75 | 216 | 4.3 | 5.2 | 0.00 | 0.00 | 0.00 | 84 | 1015.9 |
| 20260902111654 | 75 | 212 | 1.7 | 5.2 | 0.00 | 0.00 | 0.00 | 84 | 1016.0 |
| 20260902111149 | 75 | 212 | 2.6 | 3.5 | 0.00 | 0.00 | 0.00 | 84 | 1015.9 |
| 20260902110644 | 75 | 212 | 2.6 | 4.3 | 0.00 | 0.00 | 0.00 | 84 | 1015.8 |
| 20260902110141 | 75 | 225 | 1.7 | 3.5 | 0.00 | 0.00 | 0.00 | 84 | 1015.9 |
| 20260902105640 | 75 | 227 | 1.7 | 4.3 | 0.00 | 0.00 | 0.00 | 84 | 1015.9 |
| 20260902105136 | 75 | 230 | 2.6 | 5.2 | 0.00 | 0.00 | 0.00 | 84 | 1015.7 |
| 20260902104631 | 75 | 219 | 2.6 | 3.5 | 0.00 | 0.00 | 0.00 | 84 | 1015.7 |
| 20260902104126 | 75 | 246 | 1.7 | 4.3 | 0.00 | 0.00 | 0.00 | 84 | 1015.7 |
| 20260902103625 | 75 | 220 | 0.9 | 2.6 | 0.00 | 0.00 | 0.00 | 85 | 1015.8 |
| 20260902103121 | 75 | 235 | 1.7 | 4.3 | 0.00 | 0.00 | 0.00 | 84 | 1015.6 |
| 20260902102617 | 75 | 221 | 1.7 | 2.6 | 0.00 | 0.00 | 0.00 | 85 | 1015.7 |
| 20260902102114 | 75 | 227 | 2.6 | 2.6 | 0.00 | 0.00 | 0.00 | 84 | 1015.5 |
| 20260902101609 | 75 | 236 | 2.6 | 3.5 | 0.00 | 0.00 | 0.00 | 84 | 1015.7 |
| 20260902101103 | 75 | 257 | 3.5 | 4.3 | 0.00 | 0.00 | 0.00 | 84 | 1015.8 |
| 20260902100602 | 76 | 264 | 2.6 | 4.3 | 0.00 | 0.00 | 0.00 | 83 | 1015.6 |
| 20260902100058 | 76 | 252 | 3.5 | 4.3 | 0.00 | 0.00 | 0.00 | 83 | 1015.6 |
| 20260902095551 | 76 | 212 | 1.7 | 4.3 | 0.00 | 0.00 | 0.00 | 83 | 1015.6 |
| 20260902095051 | 76 | 221 | 2.6 | 3.5 | 0.00 | 0.00 | 0.00 | 83 | 1015.7 |
| 20260902094546 | 76 | 218 | 2.6 | 5.2 | 0.00 | 0.00 | 0.00 | 83 | 1015.6 |
| 20260902094042 | 76 | 212 | 2.6 | 4.3 | 0.00 | 0.00 | 0.00 | 83 | 1015.6 |
| 20260902093537 | 76 | 202 | 2.6 | 4.3 | 0.00 | 0.00 | 0.00 | 83 | 1015.6 |
| 20260902093037 | 76 | 203 | 4.3 | 7.0 | 0.00 | 0.00 | 0.00 | 83 | 1015.8 |
| 20260902092532 | 76 | 203 | 4.3 | 6.1 | 0.00 | 0.00 | 0.00 | 83 | 1015.6 |
| 20260902092027 | 77 | 212 | 2.6 | 5.2 | 0.00 | 0.00 | 0.00 | 82 | 1015.8 |
| 20260902091522 | 76 | 201 | 2.6 | 5.2 | 0.00 | 0.00 | 0.00 | 83 | 1015.7 |
| 20260902091018 | 76 | 205 | 2.6 | 4.3 | 0.00 | 0.00 | 0.00 | 83 | 1015.6 |
| 20260902090514 | 76 | 204 | 2.6 | 4.3 | 0.00 | 0.00 | 0.00 | 84 | 1015.7 |
| 20260902090013 | 76 | 208 | 2.6 | 3.5 | 0.00 | 0.00 | 0.00 | 84 | 1015.6 |
| 20260902085513 | 76 | 174 | 0.9 | 4.3 | 0.00 | 0.00 | 0.00 | 85 | 1015.5 |
| 20260902085008 | 75 | 208 | 1.7 | 3.5 | 0.00 | 0.00 | 0.00 | 85 | 1015.8 |
| 20260902084504 | 75 | 193 | 1.7 | 3.5 | 0.00 | 0.00 | 0.00 | 85 | 1015.5 |
| 20260902084000 | 75 | 200 | 2.6 | 6.1 | 0.00 | 0.00 | 0.00 | 86 | 1015.4 |
| 20260902083455 | 75 | 201 | 2.6 | 4.3 | 0.00 | 0.00 | 0.00 | 86 | 1015.7 |
| 20260902082949 | 75 | 194 | 2.6 | 4.3 | 0.00 | 0.00 | 0.00 | 86 | 1015.4 |
| 20260902082445 | 75 | 202 | 2.6 | 5.2 | 0.00 | 0.00 | 0.00 | 86 | 1015.5 |
| 20260902081941 | 76 | 209 | 2.6 | 5.2 | 0.00 | 0.00 | 0.00 | 85 | 1015.4 |
| 20260902081437 | 76 | 212 | 4.3 | 5.2 | 0.00 | 0.00 | 0.00 | 85 | 1015.4 |
| 20260902080932 | 76 | 202 | 4.3 | 7.0 | 0.00 | 0.00 | 0.00 | 85 | 1015.4 |
| 20260902080428 | 76 | 192 | 2.6 | 7.0 | 0.00 | 0.00 | 0.00 | 84 | 1015.5 |
| 20260902075928 | 77 | 202 | 3.5 | 8.7 | 0.00 | 0.00 | 0.00 | 84 | 1015.2 |
| 20260902075424 | 77 | 207 | 3.5 | 7.0 | 0.00 | 0.00 | 0.00 | 84 | 1015.2 |
| 20260902074919 | 76 | 206 | 6.1 | 8.7 | 0.00 | 0.00 | 0.00 | 84 | 1015.4 |
| 20260902074414 | 76 | 209 | 4.3 | 7.0 | 0.00 | 0.00 | 0.00 | 84 | 1015.3 |
| 20260902073909 | 76 | 204 | 4.3 | 6.1 | 0.00 | 0.00 | 0.00 | 85 | 1015.5 |
| 20260902073405 | 76 | 202 | 4.3 | 6.1 | 0.00 | 0.00 | 0.00 | 85 | 1015.1 |
| 20260902072901 | 76 | 208 | 2.6 | 5.2 | 0.00 | 0.00 | 0.00 | 85 | 1015.1 |
| 20260902072357 | 77 | 219 | 2.6 | 5.2 | 0.00 | 0.00 | 0.00 | 84 | 1015.1 |
| 20260902071853 | 77 | 208 | 1.7 | 5.2 | 0.00 | 0.00 | 0.00 | 84 | 1015.3 |
| 20260902071352 | 77 | 204 | 1.7 | 2.6 | 0.00 | 0.00 | 0.00 | 84 | 1015.2 |
| 20260902070849 | 77 | 199 | 2.6 | 4.3 | 0.00 | 0.00 | 0.00 | 84 | 1015.1 |
| 20260902070344 | 77 | 194 | 0.9 | 5.2 | 0.00 | 0.00 | 0.00 | 83 | 1015.2 |
| 20260902065842 | 77 | 202 | 2.6 | 4.3 | 0.00 | 0.00 | 0.00 | 83 | 1015.0 |
| 20260902065338 | 78 | 207 | 1.7 | 4.3 | 0.00 | 0.00 | 0.00 | 82 | 1015.2 |
| 20260902064833 | 78 | 192 | 3.5 | 4.3 | 0.00 | 0.00 | 0.00 | 82 | 1015.3 |
| 20260902064330 | 78 | 207 | 2.6 | 6.1 | 0.00 | 0.00 | 0.00 | 81 | 1015.3 |
| 20260902063825 | 78 | 199 | 3.5 | 5.2 | 0.00 | 0.00 | 0.00 | 81 | 1015.2 |
| 20260902063324 | 78 | 203 | 3.5 | 4.3 | 0.00 | 0.00 | 0.00 | 81 | 1015.3 |
| 20260902062819 | 78 | 209 | 3.5 | 4.3 | 0.00 | 0.00 | 0.00 | 81 | 1015.5 |
| 20260902062314 | 78 | 189 | 1.7 | 4.3 | 0.00 | 0.00 | 0.00 | 81 | 1015.4 |
| 20260902061814 | 79 | 206 | 3.5 | 4.3 | 0.00 | 0.00 | 0.00 | 80 | 1015.4 |
| 20260902061309 | 79 | 203 | 2.6 | 3.5 | 0.00 | 0.00 | 0.00 | 80 | 1015.6 |
| 20260902060806 | 79 | 210 | 2.6 | 4.3 | 0.00 | 0.00 | 0.00 | 80 | 1015.6 |
| 20260902060301 | 79 | 212 | 3.5 | 5.2 | 0.00 | 0.00 | 0.00 | 80 | 1015.7 |
| 20260902055755 | 78 | 213 | 1.7 | 2.6 | 0.00 | 0.00 | 0.00 | 80 | 1015.6 |
| 20260902055247 | 78 | 219 | 2.6 | 3.5 | 0.00 | 0.00 | 0.00 | 81 | 1015.8 |
| 20260902054747 | 78 | 223 | 0.9 | 2.6 | 0.00 | 0.00 | 0.00 | 81 | 1015.7 |
| 20260902054243 | 78 | 229 | 0.9 | 2.6 | 0.00 | 0.00 | 0.00 | 81 | 1015.8 |
| 20260902053737 | 78 | 224 | 0.9 | 1.7 | 0.00 | 0.00 | 0.00 | 81 | 1015.5 |
| 20260902053236 | 78 | 224 | 0.0 | 1.7 | 0.00 | 0.00 | 0.00 | 81 | 1015.5 |
| 20260902052731 | 79 | 220 | 0.0 | 1.7 | 0.00 | 0.00 | 0.00 | 81 | 1015.4 |
| 20260902052227 | 78 | 235 | 2.6 | 2.6 | 0.00 | 0.00 | 0.00 | 81 | 1015.5 |
| 20260902051726 | 78 | 215 | 0.9 | 3.5 | 0.00 | 0.00 | 0.00 | 81 | 1015.5 |
| 20260902051220 | 79 | 206 | 0.9 | 2.6 | 0.00 | 0.00 | 0.00 | 81 | 1015.4 |
| 20260902050715 | 79 | 239 | 1.7 | 2.6 | 0.00 | 0.00 | 0.00 | 80 | 1015.6 |
| 20260902050210 | 79 | 209 | 0.0 | 1.7 | 0.00 | 0.00 | 0.00 | 80 | 1015.7 |
| 20260902045705 | 79 | 230 | 0.9 | 3.5 | 0.00 | 0.00 | 0.00 | 80 | 1015.5 |
| 20260902045201 | 79 | 217 | 0.9 | 3.5 | 0.00 | 0.00 | 0.00 | 80 | 1015.3 |
| 20260902044656 | 79 | 250 | 1.7 | 3.5 | 0.00 | 0.00 | 0.00 | 80 | 1015.4 |
| 20260902044152 | 79 | 237 | 1.7 | 3.5 | 0.00 | 0.00 | 0.00 | 80 | 1015.4 |
| 20260902043647 | 80 | 256 | 3.5 | 7.0 | 0.00 | 0.00 | 0.00 | 79 | 1015.3 |
| 20260902043142 | 80 | 219 | 1.7 | 2.6 | 0.00 | 0.00 | 0.00 | 79 | 1015.1 |
| 20260902042641 | 80 | 225 | 1.7 | 3.5 | 0.00 | 0.00 | 0.00 | 78 | 1015.2 |
| 20260902042137 | 81 | 210 | 1.7 | 6.1 | 0.00 | 0.00 | 0.00 | 77 | 1015.1 |
| 20260902041636 | 81 | 230 | 1.7 | 4.3 | 0.00 | 0.00 | 0.00 | 77 | 1015.0 |
| 20260902041137 | 81 | 233 | 3.5 | 6.1 | 0.00 | 0.00 | 0.00 | 76 | 1014.8 |
| 20260902040631 | 82 | 229 | 2.6 | 6.1 | 0.00 | 0.00 | 0.00 | 75 | 1014.7 |
| 20260902040126 | 82 | 231 | 3.5 | 7.8 | 0.00 | 0.00 | 0.00 | 75 | 1014.7 |
| 20260902035624 | 82 | 224 | 4.3 | 7.8 | 0.00 | 0.04 | 0.04 | 75 | 1014.7 |
| 20260902035120 | 82 | 206 | 7.8 | 10.4 | 0.00 | 0.04 | 0.04 | 74 | 1014.5 |
| 20260902034619 | 82 | 212 | 6.1 | 10.4 | 0.00 | 0.04 | 0.04 | 75 | 1014.7 |
| 20260902034113 | 82 | 209 | 7.0 | 14.8 | 0.00 | 0.04 | 0.04 | 74 | 1014.8 |
| 20260902033612 | 82 | 202 | 13.0 | 13.9 | 0.00 | 0.04 | 0.04 | 74 | 1014.6 |
| 20260902033107 | 82 | 229 | 5.2 | 12.2 | 0.00 | 0.04 | 0.04 | 75 | 1014.6 |
| 20260902032605 | 82 | 209 | 7.0 | 9.6 | 0.00 | 0.04 | 0.04 | 75 | 1014.8 |
| 20260902032100 | 82 | 211 | 5.2 | 11.3 | 0.00 | 0.04 | 0.04 | 74 | 1014.7 |
| 20260902031555 | 82 | 223 | 7.8 | 8.7 | 0.00 | 0.04 | 0.04 | 76 | 1014.7 |
| 20260902031052 | 81 | 202 | 7.0 | 7.8 | 0.00 | 0.04 | 0.04 | 77 | 1014.8 |
| 20260902030551 | 80 | 204 | 4.3 | 7.8 | 0.00 | 0.04 | 0.04 | 79 | 1015.1 |
| 20260902030045 | 78 | 206 | 1.7 | 5.2 | 0.00 | 0.04 | 0.04 | 83 | 1015.1 |